Location: Launois
(49.6535°N, 4.5395°E)
Time: 10:00:24
(UTC+00:00)

Cosmos 1814 Rocket - Pass Details

Date: 23 May 2024
Orbit: 743 x 784 km, 74.1° (Epoch: 14 June)

Event Time Altitude Azimuth Distance (km) Brightness Sun altitude
Rises 02:34:18 0° 331° (NNW) 3,221 7.5 -9.6°
Reaches altitude 10° 02:36:44 10° 325° (NW) 2,298 6.7 -9.4°
Maximum altitude 02:41:39 43° 255° (WSW) 1,062 4.4 -8.8°
Drops below altitude 10° 02:46:35 10° 185° (S) 2,309 6.0 -8.3°
Sets 02:49:03 0° 179° (S) 3,237 6.8 -8.0°
